Regional Weather Roundup
Issued by NWS Little Rock, AR

Home | Current Version | Previous Version | Graphics & Text | Print | Product List | Glossary On
Versions: 1 2 3 4 5 6 7 8 9 10 11 12 13 14 15 16 17 18 19 20 21 22 23 24 25 26 27 28 29 30 31
000
ASUS44 KLZK 171805
RWRLZK

WEATHER ROUNDUP FOR ARKANSAS
NATIONAL WEATHER SERVICE LITTLE ROCK AR
1200 PM CST SAT FEB 17 2018

NOTE: "FAIR" INDICATES FEW OR NO CLOUDS BELOW 12,000 FEET WITH NO
SIGNIFICANT WEATHER AND/OR OBSTRUCTIONS TO VISIBILITY.

ARZ001-003-010-029-171900-
NORTHWEST ARKANSAS

CITY           SKY/WX    TMP DP  RH WIND       PRES   REMARKS
FAYETTEVILLE   CLOUDY    43  42  97 W9G20     30.10R
6HR MIN TEMP:  39; 6HR MAX TEMP:  43; 6HR PCP:  0.17;

FORT SMITH     CLOUDY    47  43  86 NW6       30.12S
6HR MIN TEMP:  41; 6HR MAX TEMP:  47; 6HR PCP:  0.23;

HARRISON       CLOUDY    45  42  89 W7        30.06F
BENTONVILLE    CLOUDY    42  40  92 W12       30.11R
6HR MIN TEMP:  38; 6HR MAX TEMP:  42; 6HR PCP:  0.08;

ROGERS         CLOUDY    42  41  96 W7        30.10R
6HR MIN TEMP:  36; 6HR MAX TEMP:  42; 6HR PCP:  0.09;

SILOAM SPGS    CLOUDY    43  41  93 W12       30.11R
6HR MIN TEMP:  39; 6HR MAX TEMP:  43; 6HR PCP:  0.08;

HIGHFILL       CLOUDY    43  42  97 W9        30.10R
6HR MIN TEMP:  38; 6HR MAX TEMP:  43; 6HR PCP:  0.07;

SPRINGDALE     CLOUDY    43  43 100 W14       30.10R
$$

ARZ004-005-016-171900-
NORTH CENTRAL ARKANSAS

CITY           SKY/WX    TMP DP  RH WIND       PRES   REMARKS
BATESVILLE     CLOUDY    41  39  93 CALM      30.10
6HR MIN TEMP:  37; 6HR MAX TEMP:  41; 6HR PCP:  1.56;

FLIPPIN        CLOUDY    43  40  89 CALM      30.08F
6HR MIN TEMP:  36; 6HR MAX TEMP:  43; 6HR PCP:  0.33;

MTN HOME       CLOUDY    42  41  96 W5        30.06F
6HR MIN TEMP:  35; 6HR MAX TEMP:  42; 6HR PCP:  0.35;

$$

ARZ040-041-171900-
WEST CENTRAL ARKANSAS

CITY           SKY/WX    TMP DP  RH WIND       PRES   REMARKS
MENA           CLOUDY    48  48 100 W9        30.11R
MOUNT IDA      CLOUDY    47  45  93 CALM      30.08S
6HR MIN TEMP:  42; 6HR MAX TEMP:  47; 6HR PCP:  0.41;

$$

ARZ009-017-025-026-028-171900-
NORTHEAST ARKANSAS

CITY           SKY/WX    TMP DP  RH WIND       PRES   REMARKS
JONESBORO      CLOUDY    42  41  96 SW3       30.10R
6HR MIN TEMP:  39; 6HR MAX TEMP:  42; 6HR PCP:  1.10;

NEWPORT          N/A     41  40  96 W5        30.11F
6HR MIN TEMP:  38; 6HR MAX TEMP:  41; 6HR PCP:  1.22;

WALNUT RIDGE   CLOUDY    41  39  93 SW7       30.10S
6HR MIN TEMP:  37; 6HR MAX TEMP:  41; 6HR PCP:  0.66;

BLYTHEVILLE    LGT RAIN  42  50 100 S7        30.08F
6HR MIN TEMP:  39; 6HR MAX TEMP:  42; 6HR PCP:  0.86;

$$

ARZ022-023-033-042-044-171900-
CENTRAL ARKANSAS

CITY           SKY/WX    TMP DP  RH WIND       PRES   REMARKS
LITTLE ROCK    CLOUDY    43  43 100 W5        30.13R
6HR MIN TEMP:  39; 6HR MAX TEMP:  43; 6HR PCP:  0.30;

N LITTLE ROCK    N/A     41  40  97 CALM      30.10S
6HR MIN TEMP:  38; 6HR MAX TEMP:  41;

JACKSONVILLE   CLOUDY    43  43  97 W5        30.10F
6HR MIN TEMP:  40; 6HR MAX TEMP:  43; 6HR PCP:  0.36;

SEARCY         CLOUDY    44  44 100 VRB3      30.12S
6HR MIN TEMP:  39; 6HR MAX TEMP:  44; 6HR PCP:  0.54;

HOT SPRINGS    CLOUDY    45  44  97 W3        30.12F
6HR MIN TEMP:  42; 6HR MAX TEMP:  46;

RUSSELLVILLE   CLOUDY    43  41  93 S5        30.10F
6HR MIN TEMP:  39; 6HR MAX TEMP:  43; 6HR PCP:  0.89;

CLINTON        CLOUDY    43  39  87 SW6       30.11F
$$

ARZ036-171900-
EAST ARKANSAS

CITY           SKY/WX    TMP DP  RH WIND       PRES   REMARKS
WEST MEMPHIS   CLOUDY    44  44 100 SW6       30.10R
6HR MIN TEMP:  40; 6HR MAX TEMP:  44; 6HR PCP:  0.36;

$$

ARZ050-053-066-070-073-171900-
SOUTHWEST ARKANSAS

CITY           SKY/WX    TMP DP  RH WIND       PRES   REMARKS
ARKADELPHIA    LGT RAIN  46  45  96 CALM      30.13F
6HR MIN TEMP:  43; 6HR MAX TEMP:  46; 6HR PCP:  0.20;

CAMDEN         LGT RAIN  46  43  87 S3        30.13F
TEXARKANA      LGT RAIN  48  47  96 SW5       30.12F
6HR MIN TEMP:  45; 6HR MAX TEMP:  48; 6HR PCP:  0.36;

EL DORADO      LGT RAIN  47  47 100 NW9       30.16R
6HR MIN TEMP:  47; 6HR MAX TEMP:  49; 6HR PCP:  0.02;

DE QUEEN       CLOUDY    47  46  97 CALM      30.12R
6HR MIN TEMP:  44; 6HR MAX TEMP:  47;

$$

ARZ056-057-069-171900-
SOUTHEAST ARKANSAS

CITY           SKY/WX    TMP DP  RH WIND       PRES   REMARKS
PINE BLUFF     LGT RAIN  44  44 100 S6        30.12R
6HR MIN TEMP:  42; 6HR MAX TEMP:  44; 6HR PCP:  0.12;

STUTTGART      LGT RAIN  44  42  93 S3        30.12F
6HR MIN TEMP:  41; 6HR MAX TEMP:  45; 6HR PCP:  0.22;

MONTICELLO     CLOUDY    47  43  86 CALM      30.14S
6HR MIN TEMP:  45; 6HR MAX TEMP:  47; 6HR PCP:  0.02;


$$






USA.gov is the U.S. government's official web portal to all federal, state and local government web resources and services.